Regional Weather Roundup
Issued by NWS

Home | Current Version | Previous Version | Text Only | Print | Product List | Glossary Off
Versions: 1 2 3 4 5 6 7 8 9 10 11 12 13 14 15 16 17 18 19 20 21 22 23 24 25 26 27 28 29 30 31 32 33 34 35 36 37 38 39 40 41 42 43 44 45 46 47 48 49 50

000
ASUS45 KBOI 010810
RWRID
WEATHER ROUNDUP FOR IDAHO
NATIONAL WEATHER SERVICE BOISE ID
100 AM MST SUN MAR 01 2015

NOTE: "FAIR" INDICATES FEW OR NO CLOUDS BELOW 12000 FEET
WITH NO SIGNIFICANT WEATHER AND/OR OBSTRUCTIONS TO VISIBILITY

IDZ012-014-010900-
SOUTHWEST IDAHO


CITY           SKY/WX    TMP DP  RH WIND       PRES   REMARKS
BOISE          PTCLDY    29  23  78 S3        30.06R
CALDWELL       CLEAR     34  18  51 W13       30.09R WCI  25
MOUNTAIN HOME  CLOUDY    34  23  63 NW8       30.05R WCI  27
$$

IDZ016-017-010900-
SOUTHCENTRAL IDAHO


CITY           SKY/WX    TMP DP  RH WIND       PRES   REMARKS
BURLEY         CLEAR     27  11  51 E6        30.04R WCI  20
JEROME         CLEAR     27  12  53 E12       30.05R WCI  17
TWIN FALLS     CLEAR     29  14  53 E7        30.05R WCI  22
$$

IDZ019>023-010900-
SOUTHEAST IDAHO


CITY           SKY/WX    TMP DP  RH WIND       PRES   REMARKS
IDAHO FALLS    CLEAR     19   7  59 N12       30.07R WCI   7
POCATELLO      CLEAR     21   9  59 E7        30.06R WCI  12
REXBURG        CLEAR     17   6  62 NE9       30.06R WCI   6
$$

IDZ006-010-011-018-031-032-010900-
CENTRAL IDAHO MOUNTAINS


CITY           SKY/WX    TMP DP  RH WIND       PRES   REMARKS
MCCALL         CLEAR     24  10  55 N9        30.04R WCI  14
HAILEY         CLOUDY    28  18  64 NW12      30.03R WCI  18
STANLEY          N/A     10   4  76 CALM      30.04R
SALMON         PTCLDY    19  10  68 NE3       30.17R
CHALLIS        CLEAR     21   9  59 NW8       30.09R WCI  11
$$

IDZ002-004-006-007-026-010900-
NORTHERN IDAHO


CITY           SKY/WX    TMP DP  RH WIND       PRES   REMARKS
LEWISTON       CLEAR     34  19  54 NW3       30.23R
LOWELL           N/A     26  20  77 CALM      30.28R
COEUR D`ALENE  CLEAR     19  10  68 NE3       30.22R
MULLAN PASS    CLEAR     15  -6  39 SE13      30.07S WCI   1
$$


USA.gov is the U.S. government's official web portal to all federal, state and local government web resources and services.